Retour au catalogue

STARLINK-31007

ActifCommunicationsVLEO
NORAD 58889·PAYLOAD·🇺🇸 United States

Lancé Jan 29, 2024 depuis Vandenberg Space Force Base

Loading…

Prochains Passages (prochaines 24 heures)

TLE

FraisSource: CelesTrak SupGP

Époque: Sep 14, 2026, 22:44 UTC

1 58889C 24020P   26257.94770833 -.00059674  00000+0 -17627-2 0  2573
2 58889  53.1572 159.5863 0001301  99.7747 139.8115 15.34427309    15

Suivez STARLINK-31007 en temps réel avec AllMySat

Download on the App Store